1489068006;13.145;3.349;5.056;12.926;11.309
1489068011;13.117;3.344;5.067;12.881;11.285
1489068016;13.112;3.339;5.073;12.911;11.297
1489068021;13.131;3.338;5.071;12.912;11.289
1489068026;13.101;3.338;5.071;12.916;11.098
1489068031;13.135;3.340;5.068;12.926;11.300
1489068036;13.135;3.335;5.074;12.912;11.294
1489068041;13.145;3.346;5.059;12.932;11.303
1489068046;13.114;3.336;5.072;12.916;11.289
1489068051;13.128;3.334;5.069;12.916;11.302
1489068056;13.132;3.336;5.072;12.909;11.271
1489068061;13.098;3.332;5.074;12.861;11.284
1489068066;13.110;3.315;5.069;12.901;11.271
1489068071;13.093;3.323;5.118;12.924;11.291
1489068076;13.066;3.309;5.159;12.870;11.170
1489068081;13.067;3.309;5.164;12.871;11.157
1489068086;13.118;3.337;5.095;12.862;11.260
1489068091;13.099;3.339;5.103;12.917;11.262
1489068096;13.130;3.330;5.127;12.884;11.263
1489068102;13.056;3.340;5.127;12.890;11.281
1489068107;13.060;3.337;5.117;12.872;10.986
1489068112;13.129;3.331;5.076;12.897;11.126
1489068117;13.133;3.332;5.078;12.928;11.296
1489068122;13.109;3.337;5.136;12.869;11.305
1489068127;13.123;3.337;5.068;12.933;11.303
1489068132;13.133;3.335;5.068;12.944;11.306
1489068137;13.144;3.350;5.061;12.948;11.309
1489068142;13.102;3.342;5.068;12.939;11.299
1489068147;13.137;3.339;5.147;12.934;11.290
1489068152;13.088;3.329;5.074;12.933;11.288
1489068157;13.133;3.336;5.062;12.948;11.307
1489068162;13.129;3.336;5.084;12.927;11.287
1489068167;13.143;3.346;5.058;12.950;11.309
1489068172;13.129;3.338;5.072;12.942;11.309
1489068177;13.143;3.346;5.060;12.956;11.309
1489068182;13.133;3.337;5.071;12.934;11.202
1489068187;13.118;3.331;5.062;12.926;11.292
1489068192;13.087;3.319;5.068;12.945;11.081
1489068197;13.125;3.333;5.110;12.881;10.975
1489068202;13.053;3.340;5.162;12.882;10.971
1489068207;13.127;3.333;5.118;12.920;10.991
1489068213;13.084;3.334;5.093;12.945;11.097
1489068218;13.128;3.334;5.067;12.946;11.287
1489068223;13.073;3.335;5.071;12.942;11.108
1489068228;13.124;3.337;5.145;12.899;11.141
1489068233;13.096;3.342;5.089;12.951;11.099
1489068238;13.108;3.337;5.135;12.923;11.255
1489068243;13.129;3.336;5.057;12.964;11.308
1489068248;13.127;3.336;5.060;12.964;11.313
1489068253;13.098;3.339;5.070;12.955;11.302
1489068258;13.142;3.347;5.054;12.966;11.310
1489068263;13.132;3.337;5.058;12.966;11.221
1489068268;13.138;3.346;5.062;12.968;11.309
1489068273;13.145;3.351;5.062;12.972;11.308
1489068278;13.127;3.331;5.101;12.952;11.290
1489068283;13.128;3.332;5.073;12.952;11.297
1489068288;13.131;3.337;5.070;12.960;11.313
1489068293;13.132;3.324;5.073;12.960;11.301
1489068298;13.130;3.342;5.069;12.961;11.296
1489068303;13.083;3.334;5.074;12.943;11.046
1489068308;13.125;3.347;5.160;12.955;11.002
1489068313;13.060;3.308;5.158;12.901;11.131
1489068318;13.065;3.318;5.154;12.905;11.114
1489068323;13.088;3.341;5.149;12.918;11.307
1489068329;13.089;3.340;5.095;12.960;11.265
1489068334;13.118;3.338;5.068;12.938;11.046
1489068339;13.054;3.342;5.086;12.942;11.096
1489068344;13.127;3.336;5.161;12.896;11.151
1489068349;13.081;3.338;5.067;12.958;11.030
1489068354;13.086;3.332;5.068;12.965;11.302
1489068359;13.097;3.341;5.120;12.959;11.288
1489068364;13.141;3.347;5.139;12.966;11.301
1489068369;13.141;3.347;5.059;12.970;11.302
1489068374;13.119;3.333;5.066;12.959;11.307
1489068379;13.140;3.347;5.055;12.981;11.314
1489068384;13.144;3.351;5.059;12.978;11.189
1489068389;13.136;3.347;5.061;12.977;11.308
1489068394;13.143;3.348;5.069;12.964;11.287
1489068399;13.130;3.337;5.089;12.964;11.302
1489068404;13.123;3.339;5.056;12.978;11.311
1489068409;13.145;3.358;5.078;12.961;11.308
1489068414;13.120;3.339;5.103;12.896;11.279
1489068419;13.110;3.323;5.075;12.944;11.273
1489068424;13.090;3.335;5.065;12.965;11.281
1489068429;13.061;3.319;5.167;12.910;11.089
1489068434;13.061;3.315;5.152;12.907;11.192
1489068439;13.129;3.339;5.090;12.965;11.169
1489068444;13.055;3.344;5.160;12.963;11.306
1489068450;13.114;3.339;5.074;12.954;11.106
1489068455;13.079;3.332;5.109;12.949;11.311
1489068460;13.079;3.340;5.092;12.965;11.303
1489068465;13.092;3.334;5.137;12.918;11.122
1489068470;13.120;3.346;5.117;12.969;11.249
1489068475;13.101;3.339;5.083;12.961;11.292
1489068480;13.125;3.336;5.075;12.969;11.228
1489068485;13.126;3.336;5.149;12.962;11.309
1489068490;13.122;3.340;5.076;12.970;11.274
1489068495;13.076;3.328;5.075;12.967;11.306
1489068500;13.130;3.339;5.069;12.973;11.307
1489068505;13.140;3.348;5.059;12.984;11.322
1489068510;13.129;3.340;5.060;12.981;11.314
1489068515;13.143;3.352;5.061;12.985;11.310
1489068520;13.143;3.352;5.061;12.984;11.323
1489068525;13.129;3.340;5.091;12.967;11.281
1489068530;13.139;3.361;5.073;12.967;11.082
1489068535;13.077;3.341;5.135;12.925;11.187
1489068540;13.109;3.324;5.064;12.956;11.262
1489068545;13.072;3.342;5.102;12.960;10.900
1489068550;13.052;3.343;5.163;12.901;11.092
1489068555;13.072;3.336;5.080;12.944;11.175
1489068560;13.072;3.340;5.069;12.958;11.132
1489068565;13.107;3.336;5.071;12.966;11.068
1489068571;13.055;3.336;5.068;12.961;11.202
1489068576;13.114;3.344;5.165;12.918;11.162
1489068581;13.086;3.337;5.073;12.962;11.114
1489068586;13.120;3.336;5.076;12.956;11.300
1489068591;13.125;3.337;5.077;12.968;11.312
1489068596;13.138;3.348;5.056;12.984;11.316
1489068601;13.117;3.339;5.122;12.963;11.316
1489068606;13.139;3.348;5.142;12.963;11.264
1489068611;13.129;3.348;5.059;12.982;11.317
1489068616;13.142;3.352;5.108;12.961;11.146
1489068621;13.120;3.339;5.077;12.968;11.217
1489068626;13.128;3.340;5.075;12.964;11.304
1489068631;13.121;3.344;5.068;12.976;11.176
1489068636;13.134;3.348;5.060;12.982;11.318
1489068641;13.142;3.352;5.061;12.986;11.312
1489068646;13.088;3.340;5.071;12.955;11.283
1489068651;13.116;3.321;5.074;12.956;11.288
1489068656;13.097;3.339;5.087;12.964;11.126
1489068661;13.049;3.340;5.153;12.903;11.031
1489068666;13.049;3.342;5.160;12.963;11.294
1489068671;13.110;3.338;5.162;12.904;11.288
1489068676;13.085;3.340;5.073;12.970;11.097
1489068681;13.123;3.337;5.110;12.912;11.065
1489068686;13.107;3.335;5.071;12.964;11.069
1489068692;13.112;3.339;5.130;12.935;11.260
1489068697;13.114;3.340;5.070;12.956;11.085
1489068702;13.132;3.353;5.075;12.975;11.310
1489068707;13.127;3.349;5.056;12.983;11.324
1489068712;13.124;3.340;5.068;12.973;11.312
1489068717;13.120;3.336;5.078;12.983;11.328
1489068722;13.092;3.333;5.130;12.934;11.312
1489068727;13.116;3.338;5.070;12.969;11.286
1489068732;13.124;3.340;5.074;12.970;11.309
1489068737;13.120;3.338;5.124;12.970;11.306
1489068742;13.127;3.338;5.055;12.984;11.323
1489068747;13.140;3.352;5.056;12.986;11.327
1489068752;13.132;3.338;5.061;12.972;11.305
1489068757;13.129;3.339;5.140;12.970;11.306
1489068762;13.072;3.332;5.074;12.951;11.248
1489068767;13.119;3.344;5.116;12.965;11.243
1489068772;13.050;3.343;5.154;12.904;10.992
1489068777;13.048;3.342;5.160;12.922;11.136
1489068782;13.060;3.338;5.075;12.905;10.987
1489068787;13.120;3.344;5.129;12.944;11.279
1489068792;13.064;3.330;5.077;12.956;11.280
1489068797;13.051;3.343;5.153;12.905;10.974
1489068802;13.099;3.340;5.062;12.913;11.261
1489068808;13.118;3.333;5.092;12.939;11.011
1489068813;13.048;3.339;5.085;12.955;11.080
1489068818;13.123;3.338;5.077;12.976;11.330
1489068823;13.123;3.339;5.068;12.968;11.294
1489068828;13.127;3.340;5.084;12.978;11.325
1489068833;13.117;3.339;5.067;12.970;11.278
1489068838;13.122;3.340;5.071;12.984;11.311
1489068843;13.137;3.353;5.063;12.978;11.232
1489068848;13.074;3.342;5.058;12.974;11.298
1489068853;13.137;3.349;5.063;12.984;11.328
1489068858;13.141;3.353;5.061;12.988;11.321
1489068863;13.126;3.341;5.066;12.984;11.324
1489068868;13.078;3.344;5.072;12.974;11.295
1489068873;13.130;3.347;5.070;12.984;11.309
1489068878;13.083;3.341;5.073;12.967;11.254
1489068883;13.118;3.345;5.149;12.957;11.227
1489068888;13.090;3.339;5.155;12.907;10.907
1489068893;13.050;3.343;5.155;12.903;10.996
1489068898;13.085;3.338;5.074;12.954;11.296
1489068903;13.040;3.341;5.087;12.964;11.280
1489068908;13.075;3.342;5.110;12.965;11.232
1489068913;13.101;3.345;5.159;12.907;11.068
1489068918;13.106;3.338;5.071;12.974;11.307
1489068923;13.071;3.326;5.094;12.968;11.316
1489068928;13.085;3.326;5.078;12.974;11.299
1489068934;13.081;3.338;5.069;12.974;11.165
1489068939;13.114;3.340;5.073;12.974;11.306
1489068944;13.136;3.349;5.054;12.984;11.322
1489068949;13.139;3.353;5.082;12.969;11.299
1489068954;13.135;3.349;5.103;12.965;11.302
1489068959;13.118;3.341;5.075;12.974;11.313
1489068964;13.126;3.339;5.073;12.984;11.252
1489068969;13.078;3.343;5.078;12.971;11.299
1489068974;13.100;3.339;5.071;12.974;11.316
1489068979;13.136;3.349;5.055;12.985;11.324
1489068984;13.121;3.343;5.062;12.985;11.322
1489068989;13.138;3.353;5.064;12.988;11.329
1489068994;13.139;3.353;5.063;12.987;11.328
1489068999;13.079;3.344;5.096;12.970;11.250
1489069004;13.108;3.342;5.085;12.917;11.285
1489069009;13.045;3.345;5.170;12.905;11.129
1489069014;13.057;3.308;5.160;12.914;11.118
1489069019;13.092;3.340;5.077;12.966;11.151
1489069024;13.094;3.340;5.075;12.971;11.234
1489069029;13.092;3.340;5.122;12.919;11.239
1489069034;13.046;3.339;5.148;12.937;11.213
1489069039;13.072;3.339;5.170;12.905;11.044
1489069044;13.111;3.338;5.103;12.926;11.312
1489069050;13.082;3.336;5.080;12.971;11.306
1489069055;13.135;3.349;5.054;12.985;11.334
1489069060;13.132;3.334;5.082;12.970;11.267
1489069065;13.131;3.349;5.060;12.985;11.325
1489069070;13.139;3.353;5.063;12.988;11.329
1489069075;13.139;3.353;5.062;12.989;11.329
1489069080;13.138;3.353;5.063;12.988;11.330
1489069085;13.139;3.354;5.057;12.989;11.329
1489069090;13.138;3.354;5.065;12.951;11.284
1489069095;13.119;3.337;5.068;12.971;11.302
1489069100;13.135;3.349;5.062;12.987;11.331
1489069105;13.139;3.354;5.060;12.989;11.329
1489069110;13.110;3.338;5.110;12.955;11.223
1489069115;13.101;3.319;5.070;12.959;11.277
1489069120;13.120;3.334;5.149;12.938;11.311
1489069125;13.047;3.345;5.166;12.904;11.044
1489069130;13.044;3.341;5.125;12.932;11.196
1489069135;13.045;3.344;5.157;12.949;11.131
1489069140;13.115;3.330;5.095;12.927;11.282
1489069145;13.077;3.342;5.157;12.905;11.012
1489069150;13.098;3.341;5.081;12.950;11.117
1489069155;13.105;3.340;5.131;12.942;11.280
1489069160;13.113;3.341;5.081;12.953;11.103
1489069166;13.120;3.345;5.062;12.985;11.317
1489069171;13.120;3.341;5.078;12.985;11.328
1489069176;13.134;3.354;5.055;12.988;11.330
1489069181;13.138;3.353;5.062;12.988;11.330
1489069186;13.123;3.338;5.079;12.974;11.310
1489069191;13.124;3.339;5.060;12.985;11.326
1489069196;13.138;3.348;5.056;12.989;11.332
1489069201;13.137;3.353;5.054;12.985;11.330
1489069206;13.138;3.354;5.064;12.988;11.328
1489069211;13.138;3.354;5.055;12.989;11.331
1489069216;13.138;3.353;5.058;12.988;11.334
1489069221;13.120;3.338;5.076;12.984;11.230
1489069226;13.084;3.348;5.070;12.950;11.289
1489069231;13.105;3.366;5.076;12.948;11.156
1489069236;13.082;3.347;5.165;12.905;11.077
1489069241;13.046;3.343;5.163;12.905;11.317
1489069246;13.113;3.341;5.081;12.905;10.996
1489069251;13.094;3.341;5.082;12.943;11.278
1489069256;13.094;3.343;5.095;12.971;11.286
1489069261;13.102;3.342;5.125;12.916;11.293
1489069266;13.044;3.344;5.165;12.904;11.095
1489069271;13.071;3.339;5.070;12.965;11.215
1489069276;13.111;3.341;5.080;12.971;11.301
1489069282;13.115;3.341;5.079;12.975;11.319
1489069287;13.133;3.350;5.057;12.985;11.330
1489069292;13.138;3.354;5.059;12.973;11.307
1489069297;13.120;3.343;5.074;12.971;11.300
1489069302;13.114;3.340;5.075;12.975;11.312
1489069307;13.134;3.350;5.057;12.985;11.334
1489069312;13.128;3.361;5.067;12.971;11.320
1489069317;13.133;3.350;5.060;12.985;11.332
1489069322;13.116;3.328;5.074;12.972;11.311
1489069327;13.122;3.339;5.079;12.985;11.329
1489069332;13.133;3.354;5.058;12.989;11.333
1489069337;13.118;3.345;5.078;12.942;11.307
1489069342;13.103;3.326;5.076;12.968;11.311
1489069347;13.114;3.340;5.136;12.928;11.301
1489069352;13.043;3.344;5.167;12.906;11.002
1489069357;13.119;3.333;5.067;12.967;11.137
1489069362;13.071;3.342;5.094;12.974;11.223
1489069367;13.119;3.334;5.073;12.937;11.021
1489069372;13.045;3.344;5.077;12.957;11.154
1489069377;13.103;3.341;5.137;12.903;11.199
1489069382;13.102;3.341;5.125;12.928;11.310
1489069387;13.061;3.342;5.139;12.967;11.314
1489069393;13.119;3.341;5.077;12.978;11.314
1489069398;13.118;3.339;5.072;12.971;11.299
1489069403;13.118;3.339;5.072;12.972;11.303
1489069408;13.125;3.344;5.074;12.968;11.288
1489069413;13.133;3.350;5.065;12.985;11.331
1489069418;13.120;3.340;5.079;12.972;11.322
1489069423;13.133;3.350;5.065;12.985;11.331
1489069428;13.089;3.342;5.072;12.971;11.304
1489069433;13.133;3.350;5.058;12.985;11.333
1489069438;13.092;3.345;5.113;12.965;11.322
1489069443;13.130;3.350;5.062;12.985;11.328
1489069448;13.125;3.334;5.102;12.975;11.288
1489069453;13.111;3.338;5.073;12.947;11.281
1489069458;13.123;3.362;5.093;12.924;11.304
1489069463;13.078;3.339;5.110;12.952;11.297
1489069468;13.054;3.318;5.155;12.911;11.130
1489069473;13.053;3.319;5.161;12.911;11.121
1489069478;13.065;3.341;5.091;12.965;11.087
1489069483;13.084;3.340;5.074;12.965;11.113
1489069488;13.101;3.318;5.114;12.975;11.276
1489069493;13.088;3.341;5.156;12.918;11.122
1489069498;13.076;3.339;5.094;12.974;11.080
1489069503;13.050;3.318;5.153;12.912;11.079
1489069508;13.091;3.336;5.162;12.936;11.290
1489069514;13.122;3.322;5.126;12.964;11.182
1489069519;13.118;3.342;5.072;12.962;11.317
1489069524;13.132;3.350;5.059;12.959;11.311
1489069529;13.119;3.340;5.067;12.972;11.304
1489069534;13.109;3.342;5.073;12.972;11.327
1489069539;13.132;3.350;5.069;12.970;11.259
1489069544;13.114;3.336;5.079;12.968;11.306
1489069549;13.132;3.351;5.065;12.989;11.338
1489069554;13.136;3.354;5.063;12.988;11.335
1489069559;13.136;3.354;5.138;12.975;11.307
1489069564;13.118;3.340;5.075;12.971;11.296
1489069569;13.132;3.350;5.066;12.985;11.241
1489069574;13.117;3.335;5.073;12.979;11.334
1489069579;13.080;3.310;5.161;12.968;11.163
1489069584;13.101;3.323;5.077;12.959;11.312
1489069589;13.097;3.330;5.088;12.970;11.281
1489069594;13.050;3.320;5.162;12.907;11.157
1489069599;13.043;3.344;5.159;12.946;11.258
1489069604;13.121;3.339;5.080;12.938;11.305
1489069609;13.101;3.342;5.077;12.929;11.055
1489069614;13.076;3.342;5.129;12.919;11.307
1489069619;13.054;3.334;5.078;12.938;11.319
1489069624;13.108;3.343;5.093;12.931;11.134
1489069629;13.043;3.345;5.081;12.926;11.153
1489069635;13.112;3.344;5.120;12.958;11.269
1489069640;13.117;3.342;5.068;12.973;11.298
1489069645;13.131;3.350;5.065;12.985;11.339
1489069650;13.121;3.363;5.074;12.971;11.321
1489069655;13.101;3.335;5.076;12.971;11.323
1489069660;13.131;3.351;5.128;12.971;11.330
1489069665;13.113;3.336;5.134;12.968;11.291
1489069670;13.131;3.350;5.063;12.985;11.332
1489069675;13.113;3.338;5.067;12.968;11.318
1489069680;13.121;3.342;5.070;12.985;11.329
1489069685;13.127;3.355;5.059;12.989;11.338
1489069690;13.135;3.353;5.087;12.972;11.311
1489069695;13.131;3.350;5.119;12.980;11.200
1489069700;13.077;3.344;5.099;12.929;11.328
1489069705;13.104;3.337;5.084;12.928;11.332
1489069710;13.098;3.334;5.170;12.907;11.017
1489069715;13.041;3.343;5.167;12.905;11.119
1489069720;13.091;3.341;5.076;12.954;11.045
1489069725;13.088;3.337;5.079;12.967;11.209
1489069730;13.078;3.342;5.081;12.956;11.251
1489069735;13.072;3.339;5.072;12.965;11.231
1489069740;13.041;3.346;5.158;12.907;11.025
1489069745;13.076;3.344;5.090;12.971;11.216
1489069751;13.101;3.341;5.072;12.971;11.317
1489069756;13.116;3.342;5.073;12.974;11.337
1489069761;13.115;3.342;5.073;12.985;11.334
1489069766;13.131;3.355;5.062;12.988;11.334
1489069771;13.135;3.355;5.055;12.989;11.338
1489069776;13.098;3.338;5.076;12.969;11.323
1489069781;13.113;3.338;5.077;12.971;11.329
1489069786;13.108;3.339;5.073;12.971;11.317
1489069791;13.115;3.342;5.071;12.975;11.329
1489069796;13.130;3.351;5.055;12.988;11.338
1489069801;13.135;3.355;5.056;12.978;11.332
1489069806;13.135;3.355;5.059;12.989;11.341
1489069811;13.105;3.357;5.139;12.930;11.271
1489069816;13.088;3.322;5.076;12.951;11.304
1489069821;13.061;3.343;5.091;12.970;11.269
1489069826;13.040;3.344;5.168;12.906;11.120
1489069831;13.060;3.336;5.076;12.945;11.117
1489069836;13.053;3.339;5.085;12.971;11.266
1489069841;13.109;3.342;5.130;12.933;11.340
1489069846;13.097;3.343;5.164;12.911;11.329
1489069851;13.069;3.340;5.075;12.965;11.035
1489069856;13.040;3.341;5.140;12.929;11.297
1489069861;13.113;3.337;5.132;12.947;11.287
1489069867;13.114;3.340;5.074;12.984;11.330
1489069872;13.130;3.352;5.061;12.988;11.335
1489069877;13.134;3.355;5.056;12.989;11.341
1489069882;13.131;3.343;5.085;12.969;11.308
1489069887;13.130;3.351;5.063;12.985;11.327
1489069892;13.134;3.355;5.064;12.989;11.339
1489069897;13.134;3.354;5.056;12.988;11.340
1489069902;13.134;3.355;5.065;12.988;11.339
1489069907;13.134;3.355;5.066;12.988;11.336
1489069912;13.134;3.355;5.077;12.949;11.290
1489069917;13.130;3.351;5.059;12.985;11.332
1489069922;13.129;3.353;5.127;12.936;11.016
1489069927;13.031;3.346;5.070;12.963;11.211
1489069932;13.112;3.342;5.165;12.958;11.247
1489069937;13.105;3.338;5.152;12.904;10.968
1489069942;13.050;3.322;5.164;12.914;11.183
1489069947;13.050;3.346;5.164;12.905;11.112
1489069952;13.099;3.342;5.087;12.921;11.188
1489069957;13.115;3.337;5.149;12.932;11.288
1489069962;13.115;3.336;5.134;12.922;11.286
1489069967;13.037;3.346;5.164;12.967;11.174
1489069972;13.110;3.340;5.139;12.945;11.039
1489069977;13.041;3.345;5.162;12.905;11.082
1489069982;13.078;3.335;5.085;12.942;11.152
1489069988;13.095;3.335;5.075;12.967;11.313
1489069993;13.129;3.351;5.066;12.985;11.330
1489069998;13.134;3.355;5.057;12.989;11.339
1489070003;13.134;3.354;5.062;12.989;11.339
1489070008;13.133;3.355;5.066;12.988;11.338
1489070013;13.134;3.355;5.056;12.989;11.337
1489070018;13.108;3.335;5.074;12.972;11.316
1489070023;13.111;3.344;5.062;12.978;11.328
1489070028;13.134;3.355;5.065;12.988;11.339
1489070033;13.134;3.355;5.059;12.989;11.337
1489070038;13.133;3.353;5.123;12.975;11.296
1489070043;13.111;3.336;5.080;12.985;11.326
1489070048;13.117;3.365;5.068;12.955;11.298
1489070053;13.100;3.340;5.139;12.923;11.297
1489070058;13.076;3.347;5.152;12.957;11.210
1489070063;13.071;3.348;5.165;12.904;11.013
1489070068;13.042;3.344;5.170;12.905;11.088
1489070073;13.081;3.341;5.075;12.963;11.163
1489070078;13.114;3.341;5.092;12.937;11.058
1489070083;13.112;3.338;5.122;12.928;11.254
1489070088;13.101;3.342;5.070;12.966;11.126
1489070093;13.041;3.345;5.169;12.904;11.079
1489070098;13.113;3.343;5.101;12.943;11.304
1489070103;13.079;3.342;5.107;12.971;11.284
1489070109;13.129;3.351;5.064;12.984;11.315
1489070114;13.115;3.340;5.064;12.985;11.323
1489070119;13.133;3.355;5.056;12.988;11.341
1489070124;13.133;3.355;5.060;12.988;11.339
1489070129;13.132;3.355;5.062;12.988;11.339
1489070134;13.133;3.355;5.060;12.988;11.338
1489070139;13.133;3.355;5.060;12.989;11.342
1489070144;13.112;3.340;5.080;12.974;11.332
1489070149;13.129;3.352;5.056;12.988;11.336
1489070154;13.133;3.355;5.065;12.989;11.341
1489070159;13.133;3.355;5.058;12.989;11.338
1489070164;13.132;3.348;5.068;12.972;11.308
1489070169;13.129;3.366;5.075;12.969;11.273
1489070174;13.104;3.341;5.140;12.956;11.291
1489070179;13.090;3.360;5.086;12.970;11.326
1489070184;13.039;3.347;5.165;12.904;11.110
1489070189;13.040;3.345;5.166;12.904;11.044
1489070194;13.114;3.346;5.120;12.921;11.308
1489070199;13.107;3.339;5.082;12.931;11.307
1489070204;13.073;3.333;5.079;12.971;11.277
1489070209;13.066;3.340;5.125;12.926;11.269
1489070214;13.086;3.344;5.149;12.919;11.106
1489070220;13.065;3.340;5.148;12.921;11.162
1489070225;13.083;3.327;5.131;12.931;11.303
1489070230;13.073;3.344;5.123;12.971;11.341
1489070235;13.088;3.340;5.079;12.974;11.323
1489070240;13.128;3.351;5.062;12.984;11.326
1489070245;13.132;3.355;5.058;12.988;11.338
1489070250;13.132;3.355;5.066;12.988;11.341
1489070255;13.133;3.355;5.066;12.988;11.342
1489070260;13.133;3.355;5.066;12.988;11.340
1489070265;13.128;3.339;5.093;12.967;11.325
1489070270;13.128;3.351;5.058;12.985;11.331
1489070275;13.133;3.355;5.056;12.988;11.343
1489070280;13.132;3.355;5.066;12.988;11.340
1489070285;13.132;3.355;5.062;12.988;11.341
1489070290;13.079;3.347;5.077;12.951;11.270
1489070295;13.094;3.336;5.130;12.932;11.266
1489070300;13.056;3.330;5.120;12.921;11.328
1489070305;13.038;3.346;5.175;12.904;11.137
1489070310;13.038;3.344;5.169;12.905;11.165
1489070315;13.109;3.341;5.156;12.933;11.063
1489070320;13.114;3.337;5.075;12.965;11.140
1489070325;13.074;3.342;5.138;12.923;11.336
1489070330;13.038;3.338;5.076;12.970;11.128
1489070335;13.105;3.344;5.172;12.904;11.124
1489070341;13.041;3.343;5.160;12.901;11.021
1489070346;13.102;3.339;5.114;12.921;11.315
1489070351;13.082;3.343;5.153;12.927;11.322
1489070356;13.128;3.351;5.077;12.962;11.287
1489070361;13.127;3.351;5.061;12.984;11.322
1489070366;13.132;3.355;5.064;12.988;11.339
1489070371;13.132;3.355;5.064;12.988;11.338
1489070376;13.132;3.355;5.061;12.988;11.338
1489070381;13.132;3.356;5.056;12.988;11.340
1489070386;13.132;3.356;5.066;12.988;11.331
1489070391;13.115;3.338;5.064;12.984;11.331
1489070396;13.132;3.356;5.064;12.987;11.341
1489070401;13.132;3.356;5.061;12.988;11.340
1489070406;13.131;3.355;5.060;12.983;11.337
1489070411;13.132;3.374;5.081;12.974;11.329
1489070416;13.106;3.341;5.144;12.922;11.303
1489070421;13.112;3.347;5.077;12.904;11.274
1489070426;13.108;3.347;5.160;12.904;11.060
1489070431;13.039;3.343;5.158;12.903;11.178
1489070436;13.099;3.342;5.085;12.965;11.106
1489070441;13.102;3.342;5.077;12.965;11.223
1489070446;13.108;3.347;5.111;12.963;11.315
1489070451;13.038;3.345;5.165;12.944;11.318
1489070457;13.116;3.340;5.082;12.970;11.276
1489070462;13.113;3.309;5.140;12.912;11.159
1489070467;13.048;3.307;5.152;12.911;11.155
1489070472;13.067;3.323;5.132;12.949;11.348
1489070477;13.076;3.340;5.164;12.958;11.306
1489070482;13.113;3.341;5.077;12.939;11.293
1489070487;13.127;3.351;5.058;12.984;11.323
1489070492;13.131;3.355;5.066;12.988;11.338
1489070497;13.131;3.355;5.139;12.970;11.223
1489070502;13.122;3.351;5.061;12.984;11.330
1489070507;13.131;3.355;5.063;12.988;11.337
1489070512;13.109;3.343;5.076;12.974;11.327
1489070517;13.127;3.351;5.066;12.986;11.332
1489070522;13.122;3.356;5.057;12.986;11.276
1489070527;13.113;3.346;5.070;12.974;11.322
1489070532;13.127;3.351;5.062;12.984;11.324
1489070537;13.131;3.350;5.091;12.970;11.124
1489070542;13.062;3.340;5.091;12.955;11.302
1489070547;13.067;3.343;5.090;12.922;11.321
1489070552;13.116;3.322;5.154;12.914;11.185
1489070557;13.038;3.339;5.166;12.905;11.126
1489070562;13.041;3.338;5.158;12.903;11.148
1489070567;13.109;3.338;5.123;12.963;11.127
1489070572;13.052;3.338;5.127;12.967;11.291
1489070578;13.109;3.337;5.109;12.926;11.246
1489070583;13.032;3.336;5.081;12.923;11.172
1489070588;13.056;3.339;5.161;12.903;11.102
1489070593;13.038;3.339;5.158;12.963;11.107
1489070598;13.112;3.332;5.141;12.932;11.332
1489070603;13.113;3.342;5.078;12.974;11.328
1489070608;13.127;3.351;5.059;12.987;11.342
1489070613;13.130;3.355;5.059;12.987;11.341
1489070618;13.130;3.355;5.067;12.987;11.343
1489070623;13.113;3.337;5.073;12.970;11.304
1489070628;13.126;3.352;5.064;12.985;11.341
1489070633;13.130;3.355;5.064;12.987;11.339
1489070638;13.131;3.355;5.064;12.987;11.343
1489070643;13.131;3.356;5.057;12.988;11.340
1489070648;13.130;3.355;5.067;12.988;11.342
1489070653;13.087;3.337;5.073;12.967;11.317
1489070658;13.127;3.352;5.068;12.983;11.329
1489070663;13.069;3.336;5.140;12.970;11.228
1489070668;13.096;3.324;5.080;12.967;11.316
1489070673;13.092;3.338;5.079;12.953;11.053
1489070678;13.038;3.343;5.159;12.902;11.145
1489070683;13.037;3.337;5.146;12.923;11.314
1489070688;13.069;3.341;5.074;12.903;11.099
1489070693;13.043;3.336;5.117;12.966;11.261
1489070699;13.060;3.340;5.085;12.956;11.159
1489070704;13.101;3.330;5.102;12.955;11.329
1489070709;13.086;3.313;5.161;12.914;11.188
1489070714;13.047;3.316;5.153;12.903;11.102
1489070719;13.073;3.339;5.074;12.960;11.141
1489070724;13.099;3.341;5.078;12.971;11.307
1489070729;13.126;3.351;5.120;12.970;11.304
1489070734;13.081;3.337;5.080;12.973;11.327
1489070739;13.126;3.351;5.066;12.983;11.340
1489070744;13.130;3.356;5.066;12.987;11.344
1489070749;13.109;3.337;5.076;12.966;11.325